{"data":{"norad_id":58999,"intl_designator":"2024-036B","name":"STARLINK-31440","alt_names":[],"object_type":"PAYLOAD","status":"ACTIVE","operator":null,"country":"US","launch_date":"2024-02-23","launch_site_code":"AFWTR","launch_vehicle":null,"mission":null,"orbit_class":"UNKNOWN","rcs_meters":null,"size_class":null,"mass_kg":null,"dimensions":null,"purposes":["comms"],"wikipedia_slug":null,"has_3d_model":false,"image_url":null,"decayed_at":null,"tle_current":{"epoch":"2026-05-25T02:04:20.608032Z","epoch_age_seconds":61597,"freshness":"FRESH","line1":"1 58999U 24036B   26145.08634963  .00003042  00000+0  11478-3 0  9994","line2":"2 58999  53.1598  83.0101 0001268  86.2582 273.8563 15.30207759126219","mean_motion":15.30207759,"eccentricity":0.0001268,"inclination_deg":53.1598,"raan_deg":83.0101,"arg_perigee_deg":86.2582,"mean_anomaly_deg":273.8563,"bstar":0.00011478,"rev_number":12621,"period_min":94.104868540273,"perigee_km":474.32290043694,"apogee_km":476.06090464663,"semimajor_km":6853.3289025418,"source":"CELESTRAK","updated_at":"2026-05-25T13:38:18.797912Z"}}}